Regional Weather Roundup
Issued by NWS

Home | Current Version | Previous Version | Text Only | Print | Product List | Glossary On
Versions: 1 2 3 4 5 6 7 8 9 10 11 12 13 14 15 16 17 18 19 20 21 22 23 24 25 26 27 28 29 30 31 32 33 34 35 36 37 38 39 40 41 42 43 44 45 46 47 48 49 50
000
ASUS43 KDTX 290310
RWRMI
MICHIGAN HOURLY REGIONAL WEATHER ROUNDUP
NATIONAL WEATHER SERVICE DETROIT/PONTIAC MI
1100 PM EDT WED SEP 28 2016

NOTE: "FAIR" INDICATES FEW OR NO CLOUDS BELOW 12,000 FEET WITH NO
SIGNIFICANT WEATHER AND/OR OBSTRUCTION TO VISIBILITY.

MIZ047>049-052>055-059>063-066>070-074>076-081>083-290400-
SOUTHEAST LOWER MICHIGAN

CITY           SKY/WX    TMP DP  RH WIND       PRES   REMARKS
ADRIAN         CLOUDY    56  56 100 N8        30.00S
ALMA           PTCLDY    56  55  95 N7        30.09R
ANN ARBOR      CLOUDY    58  57  97 NE6       30.01R
BAD AXE        CLOUDY    63  48  59 E10       30.11S
CARO           CLOUDY    61  53  75 NE7       30.08S
DETROIT CITY   LGT RAIN  59  59 100 E7        30.05R FOG
DETROIT        CLOUDY    59  57  93 NE9       30.01S
FLINT          CLOUDY    59  55  87 NE7       30.05R
GROSSE ILE     CLOUDY    59  57  94 NE8       29.99S
HILLSDALE      LGT RAIN  54  52  94 NE7       30.00R
HOWELL         LGT RAIN  57  56  97 NE6       30.03S

CITY           SKY/WX    TMP DP  RH WIND       PRES   REMARKS
JACKSON        RAIN      56  56 100 E7        30.03R
LAMBERTVILLE   CLOUDY    59  56  92 NE6       29.98S
LANSING        CLOUDY    57  53  86 N13       30.04R
LAPEER         FAIR      61  54  76 NE7       30.06R
MASON          CLOUDY    57  54  91 NE3       30.03S
MONROE         CLOUDY    58  57  97 NW6       29.99S
MT. CLEMENS    LGT RAIN  63  55  77 E16       30.01R
PONTIAC        CLOUDY    61  52  72 E7        30.03S
PORT HURON     LGT RAIN  59  55  88 N6        30.06R
TRI CITIES     PTCLDY    59  56  89 NE12      30.10R
MIDLAND        FAIR      57  55  91 N6        30.10R
TROY           LGT RAIN  61  55  81 E6        30.06R
SAGINAW HB     MOCLDY    59  52  77 N7        30.08R
$$
MIZ043>046-050>051-056>058-064>065-071>073-077>080-290400-
SOUTHWEST LOWER MICHIGAN

CITY           SKY/WX    TMP DP  RH WIND       PRES   REMARKS
BATTLE CREEK   LGT RAIN  57  55  93 NE9       30.03R
BENTON HARBOR  CLOUDY    58  53  84 NE8       30.04R
BIG RAPIDS     CLEAR     58  52  80 NE8       30.12R
COLDWATER      HVY RAIN  56  55  98 NE10      30.02R
FREMONT        FAIR      56  50  80 E6        30.11R
HOLLAND        CLOUDY    57  52  83 VRB5      30.07R
GRAND RAPIDS   MOCLDY    56  51  84 N12       30.06R
IONIA          FAIR      55  51  88 N13       30.05S
KALAMAZOO      HVY RAIN  57  54  89 N8        30.04R FOG
LUDINGTON      MOCLDY    58  52  81 NE7       30.14R
MARSHALL       LGT RAIN  56  55  99 CALM      30.02S
MOUNT PLEASANT CLEAR     57  55  91 N10       30.10R
MUSKEGON       CLOUDY    58  52  80 N7        30.10R
SOUTH HAVEN    CLOUDY    58  55  89 NE9       30.05R
$$
MIZ016>042-290400-
NORTHERN LOWER MICHIGAN

CITY           SKY/WX    TMP DP  RH WIND       PRES   REMARKS
ALPENA         CLEAR     61  54  77 NE8       30.21R
BEAVER ISLAND  CLEAR     57  54  90 N6        30.25R
BELLAIRE       PTCLDY    52  50  93 CALM      30.21R
CADILLAC       CLEAR     55  50  81 N8        30.17R
CHARLEVOIX     CLOUDY    62  52  70 N6        30.25R
FRANKFORT      PTCLDY    61  51  68 N5        30.18S
GAYLORD        CLEAR     57  49  74 NE8       30.22R
GRAYLING       CLEAR     54  52  93 NE3       30.19S
HARBOR SPRINGS CLEAR     60  50  68 NE8       30.22R
HOUGHTON LAKE  CLEAR     54  51  90 N9        30.18R
MANISTEE       CLOUDY    61  51  70 NE13      30.16R
OSCODA         CLEAR     64  56  76 NE14G22   30.15R
PELLSTON       CLEAR     49  47  93 CALM      30.24R
ROGERS CITY    CLEAR     61  56  83 E5        30.23R
TRAVERSE CITY  PTCLDY    62  52  69 NE7       30.18R
$$
MIZ007>008-015-290400-
EASTERN UPPER MICHIGAN

CITY           SKY/WX    TMP DP  RH WIND       PRES   REMARKS
KINROSS        CLEAR     56  50  80 N8        30.27R
MACKINAC ISLAN CLEAR     58  53  82 N7        30.25R
NEWBERRY       CLEAR     54  53  97 NW7       30.28R
S. S. MARIE    CLEAR     58  48  69 NE3       30.27R
MUNISING         N/A     59  57  93 NW10      30.31R
$$
MIZ004>006-011>014-085-290400-
CENTRAL UPPER MICHIGAN

CITY           SKY/WX    TMP DP  RH WIND       PRES   REMARKS
MANISTIQUE     CLEAR     53  51  92 N8        30.27R
ESCANABA       CLEAR     54  52  93 N6        30.29R
MENOMINEE      CLEAR     55  51  86 N12       30.27R
SAWYER-GWINN   MOCLDY    53  50  90 N8        30.33S
$$
MIZ001>003-009>011-084-290400-
WESTERN UPPER MICHIGAN

CITY           SKY/WX    TMP DP  RH WIND       PRES   REMARKS
IRON MOUNTAIN  CLEAR     51  47  86 N8        30.31R
HOUGHTON       CLEAR     49  47  93 N5        30.36R
COPPER HARBOR    N/A     57  52  83 E8        30.36R
IRONWOOD       CLOUDY    50  48  93 CALM      30.38R
$$

ABBREVIATIONS USED IN REMARKS
   TC - TEMPERATURE IN CELSIUS
  WCI - WIND CHILL INDEX
   HX - HEAT INDEX
  VSB - VISIBILITY




USA.gov is the U.S. government's official web portal to all federal, state and local government web resources and services.